STARLINK-11103, 59718

Orbit data source: Space-Track

STARLINK-11103, 59718 is a payload satellite owned by SpaceX/Seattle (US) in LEO that was launched on Fri, 10 May 2024 UTC via an FALCON 9 launch vehicle from the Air Force Western Test Range (AFWTR). Payload-class satellites include a variety of spacecraft equipped with specific instruments for various scientific and technological missions. These include communications satellites like Starlink; space stations such as the ISS; scientific satellites like the Hubble; Earth observation satellites from companies like Planet Labs, Umbra, and HawkEye 360; GPS; miniature CubeSats for education and research; and military/defense satellites.

Loading next visibility...
Identifier
59718, 2024-088L
Orbit
LEO
Country
Flag of USUS
Related business
Manufacturer
SpaceX/Seattle
Mission
Operational Commercial Communications
Bus & Motor
STARLINK V2MD, Unknown motor
Mass
960 kg wet, ~910 kg dry
Launch date (UTC)
2024-05-10 (2 years ago)
Launch vehicle
FALCON 9
Launch site
Air Force Western Test Range (AFWTR)
Object type
Payload
Rocket body
Debris
Shape & HBR
Box + 2 Pan, 18.1 m
Radar Cross Section
36.964 m², Large (>1 m²)

Expand to show TLE details & history
Last TLE update: 13 hours ago

TLE from 13 hours ago
0 STARLINK-11103
1 59718U 24088L   25346.83604732  .00003143  00000-0  30762-4 0  9998
2 59718  53.1597  34.2236 0001011  70.9578 289.1550 15.69730917 92639
Epoch: 2025-12-12T20:03Z
TLE epoch observation values (Epoch: 2025-12-12T20:03:54.488Z)
Latitude
0.00003°
Longitude
11.47463°
Altitude
360.358 km
Speed
7.694 km/s
True Right ascension
02h 16m 53s
True Declination
0° 00' 00"
Sunlit
Object was in full shadow at epoch
Visualization orbit readout
Latitude
Unknown
Longitude
Unknown
Altitude
Unknown
Speed
Unknown
Apparent Right ascension
Unknown
Apparent Declination
Unknown
Sunlit
N/A
Visualization observer readout
Local Sidereal Time
07:31:21
Azimuth
Unknown
Elevation
Unknown
Doppler factor
Unknown
Orbital elements
Apogee altitude
360.609 km
Perigee altitude
359.246 km
Semi-major axis
6,738.065 km
Eccentricity
0.0001
Inclination
53.1597°
RAAN
34.2236°
Arg. of periapsis
70.9578°
True anomaly
289.14406°
Mean anomaly
289.155°
Eccentric anomaly
289.14953°
Mean motion
3.9241 °/min
Orbital period
91.74 mins
BSTAR
0.000030762
Loading maneuver chart data...
Computing Atmospheric mass density...
Loading historical data...
Loading historical data...
Loading historical data...
Loading historical data...
Loading historical data...
Loading historical data...
Loading historical data...

Documentation

Showing up to 5 results
|